Stevens Point, WI

3:23 AM CDT on April 24, 2017 (GMT -0500)
Stevens Point Municipal

Weather History for KSTE - October, 2010

Change the Weather History Date:

Thursday, October 28, 2010

  Actual Average Record
Temperature  
Mean Temperature 39 °F -  
Max Temperature 41 °F 55 °F 75 °F (1966)
Min Temperature 37 °F 35 °F 19 °F (2012)
Degree Days  
Heating Degree Days 26    
Moisture  
Dew Point 31 °F    
Average Humidity 71    
Maximum Humidity 87    
Minimum Humidity 61    
Precipitation  
Precipitation 0.00 in - - ()
Sea Level Pressure  
Sea Level Pressure 29.96 in    
Wind  
Wind Speed 13 mph (West)    
Max Wind Speed 17 mph    
Max Gust Speed 31 mph    
Visibility 10 miles    
Events      
Averages and records for this station are not official NWS values.
T = Trace of Precipitation, MM = Missing Value Source: NWS Daily Summary

Daily Weather History Graph

Daily Weather History Graph

Search for Another Location

Airport or City:

Trip Planner

Search our weather history database for the weather conditions in past years. The results will help you decide how hot, cold, wet, or windy it might be!

Date:

Astronomy

Oct. 28, 2010 Rise Set
Actual Time 7:30 AM CDT 5:52 PM CDT
Civil Twilight 7:00 AM CDT 6:22 PM CDT
Nautical Twilight 6:25 AM CDT 6:57 PM CDT
Astronomical Twilight 5:52 AM CDT 7:30 PM CDT
Moon 10:17 PM CDT (10/28) 12:58 PM CDT (10/28)
Length of Visible Light 11h 22m
Length of Day
10h 22m
Waning Gibbous, 70% of the Moon is Illuminated
Oct 28
Waning Gibbous
Oct 30
Last Quarter
Nov 5
New
Nov 13
First Quarter
Nov 21
Full

Hourly Weather History & Observations

Time (CDT) Temp. Windchill Dew Point Humidity Pressure Visibility Wind Dir Wind Speed Gust Speed Precip Events Conditions
12:15 AM 41.0 °F 32.8 °F 35.6 °F 81% 29.60 in 10.0 mi West 16.1 mph 28.8 mph N/A   Overcast
12:35 AM 41.0 °F 33.1 °F 35.6 °F 81% 29.62 in 10.0 mi West 15.0 mph 26.5 mph N/A   Overcast
12:55 AM 41.0 °F 33.5 °F 35.6 °F 81% 29.63 in 10.0 mi West 13.8 mph 28.8 mph N/A   Overcast
1:15 AM 41.0 °F 33.1 °F 35.6 °F 81% 29.64 in 10.0 mi West 15.0 mph 21.9 mph N/A   Overcast
1:35 AM 41.0 °F 33.1 °F 35.6 °F 81% 29.65 in 10.0 mi West 15.0 mph 21.9 mph N/A   Overcast
1:55 AM 41.0 °F 33.1 °F 33.8 °F 76% 29.67 in 10.0 mi West 15.0 mph 25.3 mph N/A   Overcast
2:15 AM 41.0 °F 33.9 °F 33.8 °F 76% 29.68 in 10.0 mi West 12.7 mph 24.2 mph N/A   Overcast
2:35 AM 41.0 °F 33.1 °F 33.8 °F 76% 29.69 in 10.0 mi West 15.0 mph 26.5 mph N/A   Overcast
2:55 AM 41.0 °F 33.1 °F 33.8 °F 76% 29.71 in 10.0 mi West 15.0 mph 27.6 mph N/A   Overcast
3:15 AM 41.0 °F 34.3 °F 33.8 °F 76% 29.73 in 10.0 mi West 11.5 mph 21.9 mph N/A   Overcast
3:35 AM 41.0 °F 33.9 °F 32.0 °F 70% 29.74 in 10.0 mi West 12.7 mph 24.2 mph N/A   Overcast
3:55 AM 41.0 °F 34.3 °F 32.0 °F 70% 29.75 in 10.0 mi West 11.5 mph 17.3 mph N/A   Overcast
4:15 AM 41.0 °F 34.3 °F 33.8 °F 76% 29.77 in 10.0 mi West 11.5 mph 19.6 mph N/A   Overcast
4:55 AM 39.2 °F 30.8 °F 33.8 °F 81% 29.79 in 10.0 mi West 15.0 mph 26.5 mph N/A   Overcast
5:15 AM 39.2 °F 31.6 °F 33.8 °F 81% 29.81 in 10.0 mi West 12.7 mph 21.9 mph N/A   Overcast
5:35 AM 39.2 °F 32.5 °F 33.8 °F 81% 29.82 in 10.0 mi WNW 10.4 mph 18.4 mph N/A   Overcast
5:55 AM 39.2 °F 33.0 °F 32.0 °F 75% 29.84 in 10.0 mi WNW 9.2 mph 26.5 mph N/A   Overcast
6:15 AM 39.2 °F 32.0 °F 30.2 °F 70% 29.85 in 10.0 mi WNW 11.5 mph 19.6 mph N/A   Overcast
6:35 AM 39.2 °F 32.0 °F 32.0 °F 75% 29.87 in 10.0 mi West 11.5 mph 20.7 mph N/A   Overcast
6:55 AM 39.2 °F 31.6 °F 32.0 °F 75% 29.88 in 10.0 mi WNW 12.7 mph 20.7 mph N/A   Overcast
7:15 AM 39.2 °F 30.8 °F 30.2 °F 70% 29.89 in 10.0 mi West 15.0 mph 24.2 mph N/A   Mostly Cloudy
7:35 AM 39.2 °F 32.0 °F 30.2 °F 70% 29.91 in 10.0 mi West 11.5 mph 27.6 mph N/A   Overcast
7:55 AM 39.2 °F 33.0 °F 30.2 °F 70% 29.92 in 10.0 mi WNW 9.2 mph 16.1 mph N/A   Overcast
8:15 AM 39.2 °F 31.6 °F 33.8 °F 81% 29.93 in 7.0 mi West 12.7 mph 23.0 mph N/A   Overcast
8:35 AM 37.4 °F 30.8 °F 33.8 °F 87% 29.95 in 10.0 mi West 9.2 mph 16.1 mph N/A   Overcast
8:55 AM 37.4 °F 31.4 °F 33.8 °F 87% 29.97 in 10.0 mi West 8.1 mph 18.4 mph N/A   Light Drizzle
9:15 AM 37.4 °F 28.5 °F 33.8 °F 87% 29.98 in 10.0 mi West 15.0 mph 20.7 mph N/A   Light Drizzle
9:35 AM 39.2 °F 32.0 °F 32.0 °F 75% 29.99 in 10.0 mi West 11.5 mph 20.7 mph N/A   Overcast
9:55 AM 39.2 °F 32.0 °F 32.0 °F 75% 30.01 in 10.0 mi West 11.5 mph 20.7 mph N/A   Overcast
10:15 AM 37.4 °F 28.2 °F 32.0 °F 81% 30.03 in 7.0 mi WNW 16.1 mph 23.0 mph N/A   Light Drizzle
10:55 AM 39.2 °F 33.0 °F 30.2 °F 70% 30.05 in 10.0 mi West 9.2 mph 16.1 mph N/A   Overcast
11:15 AM 39.2 °F 32.0 °F 30.2 °F 70% 30.06 in 10.0 mi WNW 11.5 mph 23.0 mph N/A   Overcast
11:35 AM 39.2 °F 32.5 °F 28.4 °F 65% 30.07 in 10.0 mi West 10.4 mph 21.9 mph N/A   Overcast
11:55 AM 39.2 °F 31.2 °F 28.4 °F 65% 30.07 in 10.0 mi West 13.8 mph 21.9 mph N/A   Overcast
12:15 PM 39.2 °F 30.8 °F 28.4 °F 65% 30.08 in 10.0 mi West 15.0 mph 24.2 mph N/A   Overcast
12:35 PM 39.2 °F 32.5 °F 28.4 °F 65% 30.08 in 10.0 mi WNW 10.4 mph 20.7 mph N/A   Overcast
12:55 PM 39.2 °F 31.2 °F 28.4 °F 65% 30.09 in 10.0 mi West 13.8 mph 24.2 mph N/A   Overcast
1:15 PM 39.2 °F 33.6 °F 28.4 °F 65% 30.09 in 10.0 mi West 8.1 mph 24.2 mph N/A   Overcast
1:35 PM 39.2 °F 33.0 °F 28.4 °F 65% 30.10 in 10.0 mi West 9.2 mph 21.9 mph N/A   Overcast
1:55 PM 39.2 °F 30.8 °F 28.4 °F 65% 30.10 in 10.0 mi West 15.0 mph 21.9 mph N/A   Overcast
2:15 PM 39.2 °F 33.0 °F 26.6 °F 61% 30.11 in 10.0 mi West 9.2 mph 31.1 mph N/A   Overcast
2:35 PM 39.2 °F 31.2 °F 26.6 °F 61% 30.11 in 10.0 mi West 13.8 mph 25.3 mph N/A   Overcast
2:55 PM 39.2 °F 31.2 °F 26.6 °F 61% 30.12 in 10.0 mi West 13.8 mph 26.5 mph N/A   Overcast
3:15 PM 39.2 °F 31.6 °F 26.6 °F 61% 30.12 in 10.0 mi West 12.7 mph 23.0 mph N/A   Overcast
3:35 PM 39.2 °F 32.0 °F 26.6 °F 61% 30.13 in 10.0 mi WNW 11.5 mph 18.4 mph N/A   Overcast
3:55 PM 39.2 °F 31.6 °F 26.6 °F 61% 30.14 in 10.0 mi West 12.7 mph 20.7 mph N/A   Overcast
4:15 PM 39.2 °F 30.2 °F 28.4 °F 65% 30.14 in 10.0 mi West 17.3 mph 21.9 mph N/A   Overcast
4:35 PM 39.2 °F 32.0 °F 28.4 °F 65% 30.16 in 10.0 mi West 11.5 mph 19.6 mph N/A   Overcast
4:55 PM 39.2 °F 31.6 °F 28.4 °F 65% 30.16 in 10.0 mi West 12.7 mph 16.1 mph N/A   Overcast
5:15 PM 39.2 °F 32.5 °F 26.6 °F 61% 30.17 in 10.0 mi West 10.4 mph 21.9 mph N/A   Overcast
5:35 PM 39.2 °F 30.8 °F 26.6 °F 61% 30.17 in 10.0 mi West 15.0 mph 20.7 mph N/A   Overcast
5:55 PM 37.4 °F 29.3 °F 26.6 °F 65% 30.18 in 10.0 mi West 12.7 mph 17.3 mph N/A   Overcast
6:15 PM 37.4 °F 29.3 °F 26.6 °F 65% 30.18 in 10.0 mi West 12.7 mph 17.3 mph N/A   Overcast
6:35 PM 37.4 °F 29.8 °F 26.6 °F 65% 30.18 in 10.0 mi West 11.5 mph 20.7 mph N/A   Overcast
6:55 PM 37.4 °F 30.8 °F 26.6 °F 65% 30.19 in 10.0 mi West 9.2 mph 17.3 mph N/A   Overcast
7:15 PM 37.4 °F 29.3 °F 26.6 °F 65% 30.20 in 10.0 mi West 12.7 mph 19.6 mph N/A   Overcast
7:35 PM 37.4 °F 29.8 °F 26.6 °F 65% 30.21 in 10.0 mi West 11.5 mph 17.3 mph N/A   Overcast
7:55 PM 37.4 °F 29.8 °F 24.8 °F 60% 30.22 in 10.0 mi West 11.5 mph 21.9 mph N/A   Overcast
8:15 PM 37.4 °F 30.3 °F 26.6 °F 65% 30.23 in 10.0 mi WNW 10.4 mph 18.4 mph N/A   Overcast
8:35 PM 37.4 °F 30.8 °F 26.6 °F 65% 30.23 in 10.0 mi WNW 9.2 mph 16.1 mph N/A   Overcast
8:55 PM 35.6 °F 29.2 °F 26.6 °F 70% 30.23 in 10.0 mi West 8.1 mph - N/A   Mostly Cloudy
9:15 PM 35.6 °F 31.7 °F 26.6 °F 70% 30.23 in 10.0 mi WNW 4.6 mph - N/A   Mostly Cloudy
9:35 PM 35.6 °F 29.9 °F 26.6 °F 70% 30.23 in 10.0 mi West 6.9 mph - N/A   Mostly Cloudy
9:55 PM 33.8 °F 30.8 °F 26.6 °F 75% 30.23 in 10.0 mi West 3.5 mph - N/A   Scattered Clouds
10:15 PM 33.8 °F 28.6 °F 26.6 °F 75% 30.24 in 10.0 mi West 5.8 mph - N/A   Clear
10:35 PM 33.8 °F 29.6 °F 26.6 °F 75% 30.24 in 10.0 mi West 4.6 mph - N/A   Scattered Clouds
10:55 PM 33.8 °F 30.8 °F 26.6 °F 75% 30.24 in 10.0 mi West 3.5 mph - N/A   Scattered Clouds
11:15 PM 33.8 °F 29.6 °F 26.6 °F 75% 30.24 in 10.0 mi WNW 4.6 mph - N/A   Mostly Cloudy
11:35 PM 33.8 °F 29.6 °F 26.6 °F 75% 30.24 in 10.0 mi West 4.6 mph - N/A   Scattered Clouds
11:55 PM 33.8 °F 27.7 °F 26.6 °F 75% 30.24 in 10.0 mi West 6.9 mph - N/A   Clear